20070628,152133,55274,32.683630,-117.230539,18.981,0.357,0.247,NaN
20070628,152933,55754,32.662428,-117.227660,19.020,0.357,0.277,NaN
20070628,153948,56369,32.638982,-117.237753,19.067,0.357,0.316,NaN
20070628,155018,56999,32.643607,-117.266695,19.117,0.357,0.287,NaN
20070628,160048,57630,32.668464,-117.287713,19.171,0.357,0.359,NaN
20070628,161103,58245,32.695004,-117.303633,19.223,0.358,0.493,NaN
20070628,162103,58844,32.721757,-117.317477,19.274,0.358,0.501,NaN
20070628,163103,59444,32.748821,-117.329391,19.331,0.358,0.502,NaN
20070628,164103,60044,32.776816,-117.327810,19.394,0.358,0.517,NaN
20070628,165103,60644,32.805145,-117.322983,19.464,0.358,0.521,NaN
20070628,170103,61244,32.833407,-117.318815,19.539,0.358,0.526,NaN
20070628,171118,61859,32.862220,-117.313320,19.620,0.358,0.527,NaN
20070628,172133,62474,32.890864,-117.308090,19.705,0.358,0.527,NaN
20070628,173148,63089,32.919602,-117.303829,19.793,0.358,0.528,NaN
20070628,174218,63719,32.948517,-117.297856,20.345,23.969,0.226,NaN
20070628,175233,64334,32.958662,-117.296716,20.911,33.780,0.506,3
20070628,180233,64934,32.960240,-117.296578,20.949,33.784,0.516,4
20070628,181233,65534,32.961744,-117.296285,21.027,33.786,0.514,6
20070628,182233,66134,32.963035,-117.296423,21.071,33.787,0.519,NaN
20070628,183233,66734,32.964320,-117.296327,21.082,33.787,0.518,7
20070628,184233,67334,32.965658,-117.296151,21.138,33.789,0.518,8
20070628,185233,67934,32.966730,-117.297108,21.015,33.786,0.536,10
20070628,190248,68549,32.966396,-117.300545,20.984,33.785,0.545,11
20070628,191303,69164,32.965699,-117.303830,20.839,33.776,0.551,12
20070628,192303,69764,32.964431,-117.308046,20.689,33.771,0.554,14
20070628,193303,70364,32.960068,-117.304437,20.685,33.769,0.556,NaN
20070628,194318,70979,32.953581,-117.283326,21.285,33.794,0.440,15
20070628,195333,71595,32.954428,-117.281439,21.246,33.785,0.331,16
20070628,200333,72195,32.955372,-117.280433,21.358,33.788,0.306,17
20070628,201333,72795,32.956276,-117.279672,21.212,33.781,0.307,19
20070628,202348,73409,32.955254,-117.281384,21.397,33.791,0.430,20
20070628,203403,74024,32.959050,-117.285841,21.324,33.787,0.487,23
20070628,204418,74639,32.982266,-117.299537,21.059,33.788,0.529,NaN
20070628,205433,75255,33.007063,-117.314472,21.346,33.793,0.521,NaN
20070628,210448,75869,33.031574,-117.329329,21.319,33.790,0.519,NaN
20070628,211503,76484,33.055544,-117.344180,20.375,33.729,0.554,NaN
20070628,212503,77084,33.078487,-117.358168,20.052,33.719,0.559,NaN
20070628,213503,77684,33.101165,-117.372271,19.952,33.718,0.557,NaN
20070628,214503,78284,33.124058,-117.386556,19.742,33.716,0.556,NaN
20070628,215503,78885,33.147295,-117.400717,19.792,33.721,0.555,NaN
20070628,220503,79485,33.170773,-117.414666,19.875,33.724,0.556,NaN
20070628,221518,80099,33.194741,-117.428923,20.026,33.727,0.555,NaN
20070628,222533,80714,33.217849,-117.444772,20.339,33.741,0.556,NaN
20070628,223533,81314,33.239350,-117.458887,20.483,33.746,0.554,24
20070628,224533,81914,33.246051,-117.462243,20.714,33.748,0.557,27
20070628,225533,82514,33.246467,-117.461552,20.797,33.750,0.557,30
20070628,230533,83114,33.244254,-117.464215,20.668,33.745,0.548,31
20070628,231548,83729,33.232960,-117.461927,20.297,33.737,0.525,33
20070628,232603,84344,33.205798,-117.454472,19.963,33.733,0.522,NaN
20070628,233603,84944,33.177976,-117.447936,19.971,33.730,0.517,NaN
20070628,234603,85544,33.150212,-117.442246,20.047,33.726,0.515,NaN
20070628,235618,86159,33.121654,-117.437506,20.176,33.726,0.465,NaN
20070629,000648,86790,33.092401,-117.432834,20.335,33.728,0.458,NaN
20070629,001703,87405,33.063670,-117.427929,20.490,33.728,0.424,NaN
20070629,002718,88020,33.034890,-117.422673,20.377,33.727,0.394,NaN
20070629,003733,88634,33.006561,-117.416822,20.118,33.725,0.429,NaN
20070629,004733,89234,32.979213,-117.410249,20.160,33.725,0.468,NaN
20070629,005748,89850,32.951086,-117.402793,20.242,33.728,0.416,NaN
20070629,010818,90479,32.922503,-117.394432,20.365,33.731,0.391,NaN
20070629,011833,91094,32.912061,-117.393327,20.320,33.728,0.383,35
20070629,012848,91709,32.912050,-117.393977,20.326,33.729,0.435,36
20070629,013918,92339,32.912338,-117.395269,20.389,33.730,0.406,NaN
20070629,014933,92954,32.912751,-117.396955,20.339,33.729,0.342,NaN
20070629,015933,93554,32.912825,-117.398117,20.280,33.728,0.323,NaN
20070629,020933,94154,32.912391,-117.397675,20.208,33.728,0.300,37
20070629,021933,94755,32.912694,-117.400185,20.241,33.728,0.215,NaN
20070629,022948,95369,32.912580,-117.401440,20.239,33.729,0.160,NaN
20070629,024003,95985,32.912378,-117.402746,20.236,33.728,0.128,38
20070629,025003,96584,32.912880,-117.405644,20.242,33.728,0.085,NaN
20070629,030003,97184,32.913276,-117.408890,20.245,33.729,0.068,41
20070629,031003,97785,32.912811,-117.413778,20.294,33.730,0.061,NaN
20070629,032003,98384,32.911913,-117.417520,20.309,33.730,0.059,43
20070629,033018,98999,32.908462,-117.424139,20.380,33.732,0.058,44
20070629,034033,99614,32.896168,-117.442499,20.420,33.735,0.058,NaN
20070629,035033,100214,32.879763,-117.468307,20.204,33.732,0.059,NaN
20070629,040033,100815,32.863451,-117.494663,19.712,33.729,0.064,NaN
20070629,041033,101414,32.849940,-117.521609,19.173,33.736,0.066,45
20070629,042048,102030,32.848258,-117.530733,19.699,33.746,0.066,46
20070629,043103,102644,32.848335,-117.531538,19.670,33.746,0.066,47
20070629,044103,103244,32.848313,-117.532484,19.686,33.746,0.066,NaN
20070629,045103,103844,32.848250,-117.533118,19.382,33.740,0.066,NaN
20070629,050103,104444,32.848022,-117.533840,19.428,33.742,0.066,NaN
20070629,051103,105044,32.847883,-117.534400,19.499,33.743,0.066,NaN
20070629,052103,105644,32.847802,-117.535277,19.459,33.741,0.066,48
20070629,053118,106260,32.847847,-117.536492,19.255,33.740,0.066,50
20070629,054133,106875,32.848938,-117.541106,19.571,33.746,0.065,NaN
20070629,055133,107474,32.850142,-117.546100,19.542,33.745,0.066,52
20070629,060133,108074,32.851188,-117.550650,19.550,33.746,0.066,NaN
20070629,061133,108674,32.851998,-117.554347,19.553,33.746,0.066,54
20070629,062148,109289,32.852777,-117.556972,19.516,33.744,0.066,55
20070629,063203,109904,32.848082,-117.568778,19.461,33.746,0.066,NaN
20070629,064203,110504,32.832067,-117.595201,19.586,33.750,0.065,NaN
20070629,065218,111119,32.814965,-117.622702,19.559,33.748,0.065,NaN
20070629,070233,111735,32.797578,-117.650324,19.476,33.749,0.066,NaN
20070629,071248,112349,32.779757,-117.678042,19.427,33.754,0.066,NaN
20070629,072303,112964,32.761772,-117.705935,18.809,33.702,0.064,NaN
20070629,073303,113564,32.745337,-117.734205,18.844,33.695,0.064,NaN
20070629,074318,114179,32.729159,-117.763831,18.947,33.704,0.061,NaN
20070629,075333,114794,32.713557,-117.793811,19.263,33.712,0.061,NaN
20070629,080333,115394,32.698641,-117.823249,19.202,33.711,0.061,NaN
20070629,081333,115994,32.684781,-117.853041,18.872,33.707,0.061,NaN
20070629,082333,116594,32.678405,-117.869481,18.796,33.705,0.060,56
20070629,083333,117194,32.678845,-117.871601,18.814,33.706,0.060,NaN
20070629,084348,117809,32.679287,-117.873577,18.819,33.707,0.060,58
20070629,085403,118424,32.680021,-117.874712,18.839,33.707,0.060,NaN
20070629,090403,119024,32.679826,-117.875361,18.860,33.707,0.060,NaN
20070629,091403,119624,32.679531,-117.875704,18.853,33.707,0.060,NaN
20070629,092403,120224,32.679725,-117.875618,18.861,33.707,0.060,59
20070629,093418,120839,32.679696,-117.874979,18.886,33.708,0.060,60
20070629,094433,121454,32.680115,-117.877959,18.874,33.708,0.060,62
20070629,095448,122069,32.680782,-117.884239,18.880,33.709,0.060,63
20070629,100503,122684,32.681244,-117.890091,18.912,33.709,0.060,64
20070629,101518,123299,32.681876,-117.895389,18.910,33.709,0.060,NaN
20070629,102533,123914,32.682501,-117.902005,18.916,33.709,0.060,65
20070629,103533,124514,32.676750,-117.916498,18.942,33.709,0.060,NaN
20070629,104533,125114,32.662180,-117.944562,18.895,33.706,0.059,NaN
20070629,105533,125714,32.647138,-117.973200,18.880,33.707,0.058,NaN
20070629,110548,126329,32.632200,-118.002604,18.517,33.702,0.061,NaN
20070629,111603,126944,32.617206,-118.031626,18.564,33.709,0.063,NaN
20070629,112603,127544,32.601620,-118.059087,18.582,33.712,0.063,NaN
20070629,113618,128159,32.585690,-118.086761,18.562,33.706,0.060,NaN
20070629,114633,128775,32.569916,-118.113979,18.966,33.715,0.058,NaN
20070629,115648,129390,32.553828,-118.140997,19.043,33.711,0.059,NaN
20070629,120703,130004,32.537412,-118.167584,18.989,33.717,0.062,NaN
20070629,121718,130619,32.520781,-118.191842,18.804,33.720,0.064,70
20070629,122748,131249,32.516560,-118.200224,18.711,33.720,0.065,71
20070629,123803,131864,32.517254,-118.202244,18.673,33.720,0.067,72
20070629,124803,132464,32.517237,-118.203209,18.558,33.719,0.070,NaN
20070629,125803,133064,32.517831,-118.204313,18.444,33.720,0.075,NaN
20070629,130818,133679,32.518320,-118.206417,18.415,33.718,0.083,NaN
20070629,131833,134294,32.518975,-118.209765,18.523,33.718,0.090,73
20070629,132833,134894,32.519555,-118.213893,18.556,33.718,0.099,74
20070629,133848,135509,32.520182,-118.217984,18.492,33.717,0.104,NaN
20070629,134918,136139,32.520586,-118.224534,18.474,33.718,0.118,77
20070629,135933,136754,32.519342,-118.231242,18.470,33.718,0.134,NaN
20070629,140948,137369,32.517802,-118.229263,18.408,33.718,0.162,NaN
20070629,142018,137999,32.517684,-118.226609,18.389,33.718,0.171,80
20070629,143033,138614,32.515942,-118.223650,18.418,33.720,0.245,NaN
20070629,144033,139214,32.514249,-118.221506,18.461,33.723,0.187,81
20070629,145033,139814,32.512013,-118.231008,18.460,33.726,0.186,83
20070629,150048,140430,32.501062,-118.256953,18.476,33.725,0.208,NaN
20070629,151103,141044,32.486787,-118.284692,18.490,33.727,0.235,NaN
20070629,152103,141644,32.472051,-118.311295,18.559,33.726,0.253,NaN
20070629,153103,142244,32.458888,-118.334820,18.508,33.727,0.283,NaN
20070629,154103,142844,32.448604,-118.352912,18.489,33.730,0.295,NaN
20070629,155103,143444,32.433476,-118.380085,18.451,33.731,0.350,NaN
20070629,160103,144044,32.417956,-118.407072,18.445,33.729,0.336,NaN
20070629,161118,144659,32.402089,-118.433861,18.748,33.727,0.333,NaN
20070629,162148,145289,32.391793,-118.451049,18.834,33.723,0.353,NaN
20070629,163218,145919,32.377815,-118.475580,18.637,33.712,0.437,NaN
20070629,164233,146534,32.363436,-118.504396,18.556,33.703,0.451,NaN
20070629,165248,147149,32.350064,-118.533774,18.510,33.707,0.497,84
20070629,170318,147779,32.346042,-118.550547,18.577,33.713,0.476,86
20070629,171333,148394,32.345594,-118.554045,18.582,33.712,0.479,NaN
20070629,172348,149009,32.345598,-118.559636,18.562,33.713,0.438,89
20070629,173418,149640,32.345744,-118.566103,18.563,33.715,0.426,90
20070629,174448,150269,32.345692,-118.570897,18.548,33.715,0.402,NaN
20070629,175503,150884,32.345482,-118.574642,18.574,33.714,0.410,91
20070629,180503,151484,32.344719,-118.575570,18.589,33.713,0.438,93
20070629,181503,152084,32.343837,-118.575616,18.532,33.714,0.490,NaN
20070629,182518,152699,32.343166,-118.575600,18.499,33.714,0.490,95
20070629,183533,153314,32.342704,-118.575861,18.533,33.715,0.457,NaN
20070629,184548,153930,32.342034,-118.575569,18.587,33.715,0.446,NaN
20070629,185603,154544,32.341381,-118.575478,18.574,33.714,0.483,NaN
20070629,190603,155144,32.340939,-118.575371,18.615,33.715,0.520,NaN
20070629,191603,155744,32.340834,-118.577306,18.683,33.715,0.548,96
20070629,192603,156344,32.332809,-118.594879,18.699,33.720,0.523,NaN
20070629,193603,156944,32.318451,-118.621297,18.450,33.723,0.554,NaN
20070629,194618,157559,32.303168,-118.647916,18.047,33.733,0.564,NaN
20070629,195648,158189,32.286804,-118.674495,16.814,33.756,0.553,NaN
20070629,200703,158804,32.270366,-118.699810,16.817,33.758,0.553,NaN
20070629,201718,159419,32.253825,-118.724963,16.733,33.757,0.537,NaN
20070629,202748,160049,32.237857,-118.751522,16.607,33.756,0.443,NaN
20070629,203818,160680,32.224717,-118.779499,16.565,33.754,0.369,NaN
20070629,204833,161294,32.211364,-118.806368,16.353,33.742,0.015,NaN
20070629,205833,161894,32.198087,-118.832698,16.082,33.736,-0.335,NaN
20070629,210833,162494,32.185558,-118.859176,16.021,33.751,-0.713,NaN
20070629,211833,163094,32.177182,-118.878567,15.931,33.733,-0.711,99
20070629,212833,163694,32.175549,-118.880493,15.921,33.730,-0.963,100
20070629,213833,164295,32.175177,-118.882794,15.899,33.727,-1.216,101
20070629,214848,164910,32.174844,-118.884938,15.871,33.725,-1.024,NaN
20070629,215903,165524,32.174722,-118.887406,15.853,33.724,-1.476,NaN
20070629,220903,166125,32.174533,-118.889592,15.871,33.719,-2.836,NaN
20070629,221903,166724,32.174370,-118.892295,15.852,33.720,-1.812,NaN
20070629,222918,167340,32.174445,-118.894792,15.855,33.722,-1.240,102
20070629,223948,167969,32.174018,-118.897532,15.858,33.720,-1.638,104
20070629,225003,168584,32.173437,-118.899845,15.862,33.722,-1.858,107
20070629,230003,169184,32.172982,-118.901874,15.854,33.719,-1.855,111
20070629,231018,169799,32.172229,-118.905513,15.852,33.718,-1.983,112
20070629,232033,170414,32.170571,-118.909076,15.851,33.717,-2.409,NaN
20070629,233033,171014,32.169625,-118.912315,15.843,33.716,-2.813,113
20070629,234033,171614,32.164677,-118.919525,15.828,33.719,-4.260,115
20070629,235033,172214,32.150136,-118.941611,15.638,33.714,-10.948,NaN
20070630,000048,172829,32.133965,-118.967338,15.217,33.711,-11.064,NaN
20070630,001103,173444,32.118063,-118.993348,15.000,33.700,-11.259,NaN
20070630,002103,174044,32.102678,-119.018153,15.020,33.686,-12.462,NaN
20070630,003118,174659,32.087311,-119.043727,15.077,33.675,-16.551,NaN
20070630,004148,175289,32.071981,-119.070683,15.175,33.670,-17.197,NaN
20070630,005203,175904,32.057280,-119.097265,15.318,33.639,-9.133,NaN
20070630,010203,176504,32.043247,-119.123463,15.304,33.581,-4.005,NaN
20070630,011218,177119,32.030005,-119.149872,15.555,33.548,-0.945,NaN
20070630,012233,177734,32.017858,-119.176767,15.605,33.556,-1.063,NaN
20070630,013233,178334,32.010541,-119.204253,15.562,33.560,-1.043,117
20070630,014248,178949,32.009212,-119.224113,15.536,33.554,-2.013,118
20070630,015318,179580,32.009426,-119.228524,15.515,33.554,-2.750,NaN
20070630,020348,180209,32.009486,-119.230361,15.516,33.552,-3.057,120
20070630,021418,180839,32.009387,-119.232993,15.507,33.554,-3.402,NaN
20070630,022433,181455,32.009384,-119.235690,15.500,33.552,-3.611,NaN
20070630,023448,182069,32.010058,-119.239363,15.491,33.554,-3.364,121
20070630,024518,182699,32.010968,-119.243383,15.478,33.551,-3.854,122
20070630,025533,183314,32.011625,-119.247488,15.469,33.548,-4.717,124
20070630,030548,183929,32.011094,-119.251184,15.459,33.548,-3.541,125
20070630,031618,184559,32.011679,-119.257198,15.445,33.549,-4.468,126
20070630,032633,185174,32.012847,-119.261227,15.444,33.552,-4.429,NaN
20070630,033633,185774,32.014700,-119.265152,15.467,33.548,-7.227,127
20070630,034633,186374,32.018198,-119.270468,15.439,33.551,-5.597,128
20070630,035633,186974,32.006269,-119.288564,15.405,33.554,-6.863,NaN
20070630,040633,187574,31.987796,-119.312473,15.335,33.529,-5.768,NaN
20070630,041648,188189,31.968370,-119.335848,15.356,33.532,-6.303,NaN
20070630,042703,188804,31.947747,-119.357670,15.405,33.517,-5.026,NaN
20070630,043703,189404,31.927280,-119.378443,15.515,33.520,-5.469,NaN
20070630,044703,190004,31.909763,-119.401930,15.761,33.525,-4.521,NaN
20070630,045718,190619,31.893639,-119.427879,15.848,33.522,-3.839,NaN
20070630,050748,191249,31.880019,-119.456589,15.898,33.518,-3.060,NaN
20070630,051803,191864,31.867480,-119.485012,15.941,33.526,-2.798,NaN
20070630,052803,192464,31.857780,-119.513656,15.950,33.530,-2.761,NaN
20070630,053818,193080,31.849494,-119.543472,15.967,33.533,-2.632,NaN
20070630,054833,193694,31.846740,-119.561616,15.962,33.523,-2.627,129
20070630,055833,194294,31.845870,-119.563580,15.959,33.526,-2.601,NaN
20070630,060833,194894,31.845775,-119.565908,15.960,33.527,-4.546,131
20070630,061833,195494,31.846705,-119.568810,15.953,33.525,-3.069,NaN
20070630,062833,196094,31.847473,-119.571642,15.950,33.525,-2.802,NaN
20070630,063848,196709,31.848583,-119.574682,15.944,33.528,-2.547,NaN
20070630,064918,197339,31.849844,-119.577839,15.935,33.530,-2.501,132
20070630,065933,197954,31.850585,-119.580961,15.929,33.527,-2.504,133
20070630,070948,198569,31.851650,-119.584466,15.920,33.524,-2.329,135
20070630,072018,199199,31.853550,-119.588753,15.902,33.522,-1.978,136
20070630,073033,199814,31.856049,-119.593503,15.897,33.521,-2.272,137
20070630,074048,200429,31.857969,-119.597419,15.892,33.520,-2.105,NaN
20070630,075103,201045,31.860107,-119.601472,15.896,33.522,-2.213,138
20070630,080103,201644,31.859915,-119.608761,15.888,33.525,-2.065,139
20070630,081103,202244,31.847961,-119.631522,15.884,33.529,-1.990,NaN
20070630,082118,202859,31.832411,-119.656813,15.895,33.533,-2.148,NaN
20070630,083133,203474,31.816460,-119.682051,15.912,33.539,-2.027,NaN
20070630,084133,204074,31.800604,-119.706402,15.904,33.542,-1.980,NaN
20070630,085133,204674,31.784655,-119.730774,15.906,33.544,-1.893,NaN
20070630,090133,205275,31.768743,-119.755464,15.897,33.543,-1.868,NaN
20070630,091148,205889,31.753096,-119.781340,15.881,33.540,-1.725,NaN
20070630,092203,206504,31.737466,-119.807209,15.886,33.540,-1.392,NaN
20070630,093203,207104,31.722276,-119.832518,15.865,33.538,-1.249,NaN
20070630,094203,207704,31.707630,-119.858396,15.855,33.539,-1.298,NaN
20070630,095203,208305,31.693660,-119.884255,15.841,33.539,-1.243,NaN
20070630,100203,208904,31.679566,-119.909383,15.848,33.542,-0.925,NaN
20070630,101218,209519,31.664712,-119.935220,15.844,33.543,-0.683,NaN
20070630,102233,210135,31.649690,-119.960981,15.821,33.542,-0.620,NaN
20070630,103248,210749,31.634690,-119.986346,15.799,33.537,-0.741,NaN
20070630,104318,211379,31.619164,-120.012326,15.793,33.535,-0.807,NaN
20070630,105333,211995,31.603762,-120.038122,15.795,33.536,-0.633,NaN
20070630,110333,212594,31.589742,-120.064171,15.835,33.541,-0.562,NaN
20070630,111348,213209,31.576610,-120.091469,15.886,33.544,-0.318,NaN
20070630,112403,213824,31.563940,-120.118754,15.843,33.533,-0.326,NaN
20070630,113418,214439,31.552364,-120.146287,15.849,33.538,-0.299,NaN
20070630,114433,215054,31.541072,-120.173617,15.868,33.542,-0.350,NaN
20070630,115433,215654,31.530236,-120.200373,15.823,33.548,-0.278,NaN
20070630,120448,216269,31.517997,-120.225634,15.535,33.626,-1.310,140
20070630,121503,216885,31.514308,-120.233278,15.389,33.663,-3.070,141
20070630,122503,217484,31.513350,-120.234812,15.343,33.679,-4.299,142
20070630,123503,218084,31.512360,-120.236236,15.304,33.694,-6.266,NaN
20070630,124503,218685,31.511398,-120.238015,15.271,33.704,-8.254,NaN
20070630,125503,219284,31.510330,-120.239759,15.245,33.711,-9.979,NaN
20070630,130518,219899,31.509072,-120.241408,15.218,33.716,-12.165,143
20070630,131533,220514,31.507900,-120.243241,15.200,33.719,-14.264,144
20070630,132548,221129,31.506848,-120.245520,15.105,33.707,-16.924,146
20070630,133603,221744,31.505691,-120.248054,14.913,33.652,-17.901,147
20070630,134603,222344,31.505447,-120.252245,14.798,33.626,-16.992,148
20070630,135618,222959,31.505899,-120.256100,14.771,33.621,-14.168,NaN
20070630,140633,223574,31.507479,-120.260714,14.716,33.598,-18.520,NaN
20070630,141633,224174,31.508005,-120.269244,14.643,33.567,-6.339,149
20070630,142633,224774,31.495679,-120.292261,14.677,33.553,-3.648,NaN
20070630,143648,225389,31.479559,-120.318913,14.741,33.568,-3.047,NaN
20070630,144703,226004,31.463223,-120.345467,14.768,33.586,-2.892,NaN
20070630,145703,226604,31.447035,-120.371527,14.778,33.580,-2.721,NaN
20070630,150703,227204,31.432111,-120.398026,14.760,33.553,-1.986,NaN
20070630,151703,227804,31.417463,-120.424613,14.793,33.529,-0.956,NaN
20070630,152718,228419,31.402437,-120.452387,14.825,33.500,-0.317,NaN
20070630,153733,229034,31.387410,-120.479654,14.844,33.490,-0.262,NaN
20070630,154733,229634,31.372999,-120.505709,14.902,33.469,-0.179,NaN
20070630,155733,230235,31.358846,-120.531698,14.934,33.427,0.053,NaN
20070630,160733,230834,31.345117,-120.557677,14.985,33.403,0.116,NaN
20070630,161733,231434,31.332002,-120.584024,15.083,33.361,0.167,NaN
20070630,162733,232034,31.319739,-120.610849,15.328,33.357,0.261,NaN
20070630,163748,232650,31.307649,-120.638709,15.610,33.399,0.392,NaN
20070630,164803,233264,31.295284,-120.666482,16.104,33.472,0.479,NaN
20070630,165803,233864,31.282812,-120.693532,16.206,33.481,0.489,NaN
20070630,170803,234464,31.270385,-120.720384,16.226,33.469,0.486,NaN
20070630,171803,235064,31.257202,-120.747317,16.247,33.439,0.488,NaN
20070630,172818,235679,31.243136,-120.774703,16.281,33.450,0.493,NaN
20070630,173848,236309,31.228703,-120.802360,16.342,33.450,0.507,NaN
20070630,174903,236924,31.214888,-120.828931,16.428,33.466,0.515,NaN
20070630,175918,237539,31.201787,-120.854147,16.432,33.498,0.520,NaN
20070630,180933,238154,31.189971,-120.875997,16.389,33.511,0.525,150
20070630,181933,238755,31.179833,-120.901516,16.302,33.510,0.527,151
20070630,182933,239355,31.177839,-120.909189,16.299,33.507,0.528,152
20070630,183933,239954,31.178658,-120.910413,16.306,33.504,0.498,154
20070630,184948,240569,31.179471,-120.911678,16.319,33.503,0.530,NaN
20070630,190003,241184,31.180181,-120.912761,16.321,33.503,0.530,155
20070630,191003,241784,31.181123,-120.914129,16.334,33.503,0.464,NaN
20070630,192003,242385,31.182068,-120.915549,16.331,33.504,0.471,NaN
20070630,193003,242984,31.183112,-120.917056,16.338,33.505,0.530,NaN
20070630,194003,243584,31.183979,-120.918671,16.355,33.504,0.442,156
20070630,195018,244199,31.184992,-120.920522,16.349,33.504,0.533,157
20070630,200033,244814,31.184934,-120.921438,16.359,33.504,0.534,NaN
20070630,201033,245415,31.185298,-120.922920,16.357,33.505,0.534,158
20070630,202033,246014,31.185475,-120.926007,16.378,33.504,0.534,NaN
20070630,203033,246614,31.185420,-120.929442,16.392,33.502,0.494,160
20070630,204033,247214,31.186948,-120.933812,16.410,33.497,0.537,161
20070630,205048,247829,31.178040,-120.947205,16.423,33.503,0.536,NaN
20070630,210118,248460,31.160655,-120.972860,16.462,33.503,0.533,NaN
20070630,211148,249090,31.143319,-120.998556,16.458,33.503,0.533,NaN
20070630,212203,249704,31.126358,-121.023254,16.450,33.503,0.533,NaN
20070630,213203,250304,31.110224,-121.047607,16.469,33.504,0.533,NaN
20070630,214203,250904,31.094917,-121.072890,16.497,33.505,0.531,NaN
20070630,215203,251504,31.080321,-121.098727,16.495,33.499,0.530,NaN
20070630,220203,252104,31.066065,-121.124681,16.467,33.494,0.528,NaN
20070630,221218,252720,31.052209,-121.151465,16.447,33.495,0.529,NaN
20070630,222233,253334,31.038848,-121.178884,16.435,33.498,0.530,NaN
20070630,223233,253934,31.026106,-121.206148,16.424,33.505,0.533,NaN
20070630,224248,254549,31.012895,-121.234293,16.391,33.503,0.528,NaN
20070630,225303,255164,30.999447,-121.262213,16.324,33.463,0.525,NaN
20070630,230318,255779,30.986296,-121.289753,16.307,33.450,0.523,NaN
20070630,231333,256395,30.972858,-121.316901,16.380,33.455,0.523,NaN
20070630,232333,256994,30.959528,-121.343802,16.384,33.446,0.520,NaN
20070630,233333,257594,30.946019,-121.371077,16.416,33.441,0.517,NaN
20070630,234333,258194,30.932551,-121.398376,16.326,33.386,0.512,NaN
20070630,235348,258810,30.918999,-121.426484,16.374,33.385,0.508,NaN
20070701,000403,259424,30.904756,-121.454741,16.461,33.354,0.503,NaN
20070701,001403,260024,30.891023,-121.482139,16.603,33.339,0.497,NaN
20070701,002418,260640,30.876804,-121.510087,16.623,33.344,0.495,NaN
20070701,003433,261255,30.863078,-121.537994,16.666,33.345,0.488,NaN
20070701,004448,261870,30.849712,-121.565683,16.721,33.353,0.485,163
20070701,005503,262484,30.846756,-121.580680,16.750,33.358,0.488,165
20070701,010503,263084,30.848420,-121.585380,16.759,33.358,0.479,NaN
20070701,011518,263699,30.849261,-121.589539,16.762,33.358,0.470,166